GFSWCAN_sfc_30mbdewp_177.txt.gz
Dewpoint
38 38 38 38 38 38 37 37 37 37 37 37 38 38 38 39 39 37 34 37 32 29 27 27 27 26 26 30 25 30 28 29 29 23 22 20 17 15 11 13 15 17 16 18 18 16 12 21 18 14 17 25 27 28
39 39 38 38 38 37 37 37 37 38 38 38 38 38 38 38 39 38 33 37 38 32 30 35 33 33 32 35 30 31 29 30 29 25 24 21 17 16 12 5 14 10 14 16 17 16 20 21 19 24 28 27 29 30
39 38 39 38 38 38 37 37 38 37 38 37 37 38 38 38 39 38 35 37 35 30 30 31 28 30 31 34 36 29 32 33 32 32 28 25 19 17 11 12 12 14 17 12 14 14 17 21 19 19 21 31 29 33
39 39 39 39 38 38 38 38 37 37 37 37 36 37 37 38 39 37 34 36 32 31 25 24 29 28 28 31 32 32 29 30 32 30 26 24 19 20 14 14 14 13 18 16 16 17 15 14 16 18 26 25 31 33
39 38 38 37 38 38 38 38 38 38 37 37 36 36 36 37 37 38 38 36 36 32 24 23 27 27 27 27 23 25 26 25 27 25 25 23 26 23 22 21 17 18 16 11 6 15 10 11 17 18 22 25 27 31
38 39 39 38 38 38 38 37 38 38 37 37 36 36 36 38 36 29 18 31 38 34 27 19 22 24 25 26 25 24 26 25 24 24 24 25 28 22 21 20 19 19 19 18 15 17 18 19 22 24 24 23 23 32
39 39 39 38 38 37 38 38 38 37 37 37 37 36 36 38 34 24 16 31 39 33 25 20 19 23 28 26 27 26 25 24 23 22 21 21 21 25 21 18 18 18 17 18 19 21 21 22 19 23 26 30 34 36
39 39 39 39 38 37 37 37 37 37 37 36 36 37 37 37 36 32 33 36 37 32 30 20 19 20 26 24 23 29 25 25 24 20 23 20 21 21 17 16 17 19 19 20 21 22 20 20 23 24 27 35 34 31
39 39 39 39 38 38 38 37 37 37 37 36 38 37 34 33 30 30 35 36 35 30 24 23 19 13 27 28 29 27 27 23 24 22 22 22 19 18 17 18 16 16 17 18 19 19 20 23 24 29 33 34 32 30
39 39 38 38 38 38 38 38 37 37 36 37 34 29 25 30 35 37 35 30 30 30 28 23 24 19 26 26 24 25 28 24 20 22 25 21 19 19 19 22 24 19 18 18 18 21 28 30 30 31 32 34 31 30
40 39 39 38 38 38 37 37 36 36 36 33 29 28 32 36 34 30 24 23 23 21 24 24 23 20 27 23 21 26 23 24 19 19 21 20 20 25 33 31 32 27 21 19 20 20 24 26 26 29 32 34 31 27
39 39 38 38 38 38 37 37 37 36 34 32 33 35 36 31 28 23 21 23 22 18 22 23 24 24 21 28 21 25 23 24 17 25 22 18 22 30 31 29 30 31 31 31 31 29 26 28 29 30 32 33 31 27
37 37 37 37 38 37 37 37 37 37 37 34 31 29 28 27 21 19 16 19 21 24 24 25 23 24 28 29 24 25 22 20 27 22 18 20 27 30 29 29 28 29 29 30 31 32 32 32 26 31 32 33 31 29
36 36 36 36 37 37 38 39 41 40 34 29 26 22 23 20 22 22 20 19 22 24 24 26 26 26 27 25 26 22 23 25 20 18 18 24 28 27 27 27 27 27 30 30 31 31 31 31 30 32 31 31 30 27
36 37 37 37 37 38 39 40 40 39 32 28 29 21 23 24 26 27 29 28 31 32 31 29 27 27 27 25 25 23 21 19 21 20 25 27 28 26 26 26 25 28 29 30 31 31 31 32 32 31 31 31 29 26
37 39 39 39 39 38 38 39 40 37 31 31 29 25 28 28 26 30 30 29 32 32 31 31 27 25 23 25 23 21 20 17 20 26 27 27 25 24 24 25 25 27 28 29 30 30 30 30 29 27 27 26 25 24
39 37 38 39 39 40 40 37 35 31 30 29 27 29 27 26 26 28 30 30 33 31 28 28 24 20 23 23 22 23 21 24 27 28 28 27 25 24 24 26 26 26 27 28 28 27 26 25 26 26 25 22 23 22
37 37 38 38 38 38 36 36 32 31 27 28 27 27 29 30 29 29 30 31 31 31 31 28 27 23 20 19 21 24 26 26 27 26 25 25 26 23 26 26 28 26 26 25 26 25 24 24 24 23 21 18 18 17
37 37 36 38 38 36 32 33 34 28 27 27 28 28 29 29 31 31 31 32 32 33 32 30 27 24 23 25 24 24 24 24 24 25 24 26 25 23 25 25 25 25 24 24 24 23 23 23 22 21 19 19 18 16
37 37 37 37 39 33 30 32 36 30 27 27 29 28 28 28 29 30 31 31 31 31 28 27 25 24 24 24 25 24 26 25 23 23 23 24 24 25 25 25 24 24 24 24 24 23 22 22 22 21 20 19 17 16
33 33 35 37 36 35 31 31 29 30 31 27 29 29 27 28 28 28 28 30 28 27 25 25 24 25 26 26 26 26 26 25 23 25 25 23 25 25 24 25 25 24 23 23 23 23 23 22 22 22 20 18 17 17
33 34 30 32 29 33 31 31 29 31 29 29 28 29 26 25 25 26 29 26 25 23 25 25 24 25 25 24 24 26 26 26 26 26 26 26 24 25 26 26 25 24 24 25 25 24 24 24 23 23 21 19 18 18
30 29 33 34 29 27 24 29 27 27 25 24 28 25 25 26 27 28 25 25 24 25 26 26 26 26 24 26 26 27 27 27 26 26 26 27 28 28 28 28 27 26 26 26 27 26 25 25 23 22 21 19 18 17
30 29 28 27 27 23 27 23 27 28 26 26 24 23 24 25 25 24 22 22 22 26 27 27 26 25 26 25 24 25 27 28 27 27 27 27 26 27 27 27 28 28 27 27 26 25 25 24 24 24 24 23 22 20
25 24 24 19 23 24 22 22 22 24 22 21 22 22 22 24 21 21 21 21 23 25 25 27 27 26 24 23 23 24 27 27 26 25 27 27 26 26 25 25 25 26 27 26 26 25 25 25 25 25 25 24 23 22
21 20 20 20 22 22 21 21 21 21 21 20 20 20 22 20 18 17 19 19 22 24 25 25 26 25 24 24 23 24 25 27 25 24 25 27 27 25 25 24 23 24 26 27 26 25 24 24 24 24 23 24 24 23
17 19 22 24 23 23 19 19 22 22 21 20 20 22 21 16 15 17 18 18 19 22 24 25 25 25 23 23 24 25 26 27 26 25 26 26 26 25 24 23 22 23 25 25 25 25 25 24 23 22 22 22 23 23
18 17 16 16 16 21 19 19 18 20 20 21 21 19 18 16 16 14 16 18 19 23 23 23 24 24 23 23 23 24 25 25 25 25 24 24 24 25 26 26 25 25 24 24 24 25 24 23 22 22 21 21 21 21
19 18 17 15 15 17 18 17 18 19 18 18 17 18 18 13 13 14 15 16 16 20 20 20 20 21 20 20 21 21 22 23 22 20 19 18 18 20 22 24 24 25 25 24 24 23 23 23 23 22 22 22 21 21
14 15 12 13 14 14 14 18 18 16 16 16 14 12 11 10 11 11 14 15 14 15 18 19 19 19 18 18 17 17 18 19 20 21 19 17 17 19 20 21 23 23 24 24 23 22 21 20 21 20 20 20 20 20
12 14 15 14 13 14 16 16 16 16 16 16 11 12 12 10 10 11 12 13 15 15 18 18 18 19 17 16 15 15 15 16 17 18 18 18 18 19 19 20 22 23 22 23 22 21 20 19 18 18 17 18 18 18
7 12 12 11 10 9 8 11 12 13 12 13 13 9 9 9 9 8 11 12 14 15 16 17 17 17 17 17 15 14 15 14 13 14 15 15 16 15 16 18 18 17 17 17 18 19 20 20 18 18 18 17 15 15
3 2 2 5 8 7 11 8 12 13 10 11 11 10 9 9 9 7 10 11 11 13 15 16 17 18 18 18 17 16 14 12 12 11 10 9 10 11 12 14 13 12 11 11 10 11 12 11 10 9 8 7 6 5

GFSWCAN_sfc_30mbdewp_180.txt.gz
Dewpoint
38 38 38 38 38 39 38 37 37 37 37 37 38 38 38 38 38 37 34 36 32 26 24 25 26 23 23 25 21 22 25 28 28 23 21 20 19 18 14 14 19 19 19 18 19 17 13 18 19 13 16 20 24 26
38 39 38 38 38 38 38 37 37 37 37 38 38 38 38 38 38 37 33 36 37 31 29 33 32 31 28 27 28 28 28 28 30 25 25 24 21 19 15 10 15 15 16 15 17 15 18 22 17 23 26 25 26 28
39 39 39 38 38 38 38 37 37 38 38 38 38 37 38 38 38 38 35 37 35 30 30 30 27 29 32 32 34 27 31 33 31 32 28 26 21 21 16 13 12 14 17 15 18 17 18 21 22 15 12 15 23 30
39 38 39 38 38 38 37 37 38 37 38 37 37 37 37 37 38 39 36 36 33 30 25 22 28 28 30 31 32 34 33 32 33 32 28 25 23 25 22 21 16 14 18 15 15 15 17 18 16 11 14 27 24 23
39 39 39 39 38 38 38 38 38 38 37 37 36 36 36 37 38 39 38 37 37 32 24 24 27 26 27 27 27 33 34 31 28 26 25 23 26 24 23 22 18 17 16 14 11 15 13 7 10 16 16 17 19 24
39 38 39 38 38 38 38 38 38 38 37 37 36 36 37 38 35 29 21 28 35 34 27 19 21 24 25 26 27 25 26 26 24 24 23 25 28 23 20 19 19 19 19 18 14 15 15 15 17 19 20 21 23 23
39 39 39 38 38 38 38 38 38 37 37 37 36 36 36 38 32 22 13 30 38 34 26 20 18 21 25 27 26 26 26 25 24 23 22 21 22 25 20 14 13 17 20 21 21 21 20 20 16 18 23 23 25 31
39 39 39 39 38 37 38 38 38 37 37 37 36 37 37 37 36 32 32 36 36 30 29 20 18 18 25 24 22 28 24 24 23 21 22 20 21 22 18 16 16 17 17 19 19 21 21 21 21 21 22 23 24 28
39 39 39 39 38 37 38 37 37 37 37 37 38 36 33 32 29 29 35 36 35 27 21 23 18 11 25 27 28 27 26 22 24 23 22 23 21 18 18 19 19 19 18 17 18 20 21 22 21 20 21 23 29 32
39 39 39 39 38 38 38 37 37 37 37 36 33 28 24 29 35 36 34 29 29 29 28 22 23 19 24 25 24 23 25 24 20 21 25 22 19 21 21 23 28 32 30 30 20 18 19 20 20 22 24 29 32 32
40 39 39 38 38 38 38 37 36 36 36 32 29 28 31 36 34 30 24 23 23 21 25 24 23 20 24 20 20 24 22 23 18 19 21 20 19 23 32 31 31 30 30 29 22 20 20 22 24 29 31 32 32 32
38 39 38 38 38 38 37 37 36 34 32 31 33 35 35 30 27 23 21 22 21 17 21 22 23 24 23 26 21 23 20 23 17 26 21 18 21 30 30 29 27 28 29 29 30 31 31 31 27 28 29 30 32 30
39 39 38 38 38 37 37 37 37 37 36 34 30 28 27 26 20 19 15 19 20 23 24 25 23 23 25 28 25 23 21 19 27 21 17 19 27 30 28 28 27 27 28 29 30 31 31 31 31 31 29 30 31 28
37 38 37 37 38 38 38 37 37 38 33 28 25 20 22 19 21 20 20 19 22 25 25 27 25 24 25 24 24 22 22 24 19 18 18 24 27 27 27 26 25 25 27 28 29 31 31 31 30 30 30 30 29 27
36 36 36 36 36 36 38 38 40 38 31 27 28 20 22 23 24 25 27 29 30 31 30 28 28 27 26 24 25 22 20 18 20 18 23 27 28 26 24 24 24 24 26 27 29 29 29 30 29 28 30 31 29 27
35 36 37 38 39 39 38 38 40 35 31 29 27 25 25 27 26 28 30 30 32 32 31 30 26 24 23 24 22 19 18 16 17 25 27 27 26 25 24 23 25 25 26 27 28 28 27 28 28 27 28 28 27 26
36 37 38 38 39 38 39 37 33 30 29 29 25 28 27 25 25 26 29 30 33 30 27 28 23 20 22 22 21 22 20 20 25 27 27 26 25 26 23 25 26 27 26 26 27 26 25 25 26 26 25 23 24 24
37 37 38 38 37 38 36 35 31 30 26 27 26 27 28 28 28 29 30 31 30 29 30 27 26 22 21 20 19 21 25 26 27 26 25 25 26 24 24 25 25 26 25 23 24 24 25 25 25 23 21 20 19 18
37 37 38 38 37 35 31 32 32 27 28 27 27 27 29 28 30 31 31 31 31 32 30 29 26 24 23 23 23 23 24 24 24 25 24 23 24 22 23 23 23 24 23 23 23 22 22 22 22 21 19 20 18 17
38 38 38 38 38 33 30 31 36 31 26 27 28 27 27 27 28 29 30 30 30 30 27 26 25 24 24 23 23 23 25 25 23 22 22 23 25 25 24 23 23 23 23 23 23 22 21 21 21 21 21 19 18 16
33 33 36 37 36 34 31 29 29 29 29 29 28 29 27 28 27 27 27 30 28 27 25 26 24 25 25 25 25 26 26 25 23 23 24 23 24 24 24 25 25 24 23 22 22 22 22 21 21 21 20 18 17 17
31 34 31 34 31 32 29 32 30 31 29 28 28 28 25 24 24 26 28 26 25 25 25 24 25 25 25 25 24 25 25 25 25 25 26 25 24 25 26 26 24 24 24 24 24 23 23 23 23 22 20 18 18 17
32 31 33 32 27 27 24 29 28 28 25 25 27 24 23 24 26 28 25 25 24 24 24 25 25 25 24 25 25 26 27 26 25 25 25 26 27 27 27 27 27 26 26 26 26 25 23 23 22 21 19 18 17 15
31 31 28 27 27 22 26 25 27 27 27 25 24 21 23 24 26 24 21 22 22 25 25 26 25 25 25 25 24 25 26 27 26 26 27 27 26 26 26 26 26 27 27 26 26 25 24 23 22 23 22 20 19 18
27 24 25 22 23 23 21 21 21 23 21 22 22 21 21 24 21 20 20 20 22 23 24 26 26 25 24 23 23 24 26 27 26 25 26 27 25 25 24 24 24 25 26 25 25 24 24 25 25 24 24 23 22 21
21 21 21 19 20 21 20 20 20 21 20 20 20 20 21 21 18 16 18 17 19 23 24 25 26 24 23 23 22 23 25 26 27 24 24 26 26 25 24 23 23 23 25 25 25 24 24 24 24 24 23 24 24 22
17 18 22 24 22 23 19 19 21 21 19 20 19 21 21 17 14 15 16 17 17 19 21 23 24 26 25 23 24 25 25 27 26 25 25 25 25 25 24 22 22 23 24 24 25 24 24 24 23 22 21 21 21 22
19 20 16 15 16 18 19 18 16 17 19 20 20 18 18 16 15 14 15 16 18 18 22 22 23 24 23 23 24 24 24 24 24 24 23 23 23 24 25 25 24 25 24 24 24 24 23 23 22 21 20 21 21 20
17 16 16 15 15 15 17 17 15 17 17 18 17 17 19 17 13 13 14 15 15 16 19 20 20 20 20 20 20 20 22 23 21 19 19 18 18 20 21 23 24 24 25 24 24 23 23 23 22 21 20 20 19 18
8 13 8 11 11 9 14 15 17 17 17 18 17 16 13 11 10 8 12 13 13 13 14 16 18 19 18 19 18 17 17 18 19 21 19 18 17 18 20 21 22 22 22 23 23 22 20 19 21 20 20 19 19 19
10 12 13 12 11 12 15 10 10 12 13 14 11 14 13 10 8 8 9 10 11 12 14 15 16 18 17 17 16 15 16 16 16 17 17 18 19 19 19 20 19 19 20 21 21 20 19 18 17 17 17 17 17 16
5 9 11 9 7 4 8 6 7 10 10 11 12 8 8 9 10 7 9 8 10 12 12 14 16 17 17 18 16 15 15 14 13 13 15 15 15 14 15 15 14 15 16 16 16 16 17 16 14 14 13 11 10 9
3 1 1 3 4 0 -1 1 1 8 8 9 9 5 5 8 7 5 7 9 8 8 9 13 16 16 17 16 15 13 12 11 10 10 9 9 10 12 12 10 10 10 10 9 9 9 9 8 7 6 5 4 4 3

GFSWCAN_sfc_30mbdewp_183.txt.gz
Dewpoint
38 39 39 40 39 38 37 37 37 38 38 38 38 38 39 38 39 38 34 35 32 27 24 25 25 22 22 23 19 20 21 25 26 22 21 20 17 12 12 12 14 17 19 20 20 18 13 19 19 11 13 19 25 26
39 39 39 39 39 39 38 37 37 38 38 38 38 38 38 38 38 37 33 35 36 31 28 32 30 27 25 24 23 28 22 22 24 25 24 24 19 23 18 13 18 16 19 17 19 17 19 22 18 22 23 23 27 27
39 39 39 39 39 39 38 38 37 37 38 38 38 38 38 38 38 37 33 37 35 29 28 29 27 29 34 33 31 26 28 29 31 31 28 26 21 24 19 20 20 17 19 18 18 17 18 20 24 22 16 13 18 23
39 39 39 39 38 38 38 37 38 38 38 38 37 37 37 38 38 38 35 37 34 30 23 23 27 27 30 32 32 32 30 30 33 32 27 25 22 27 22 23 22 21 20 17 17 17 19 20 23 15 12 22 28 27
39 39 39 39 38 38 37 38 38 38 37 37 36 36 36 37 38 38 36 37 36 31 23 24 26 24 25 28 30 32 32 30 28 25 26 22 23 25 25 23 20 20 18 17 14 16 17 17 21 18 14 14 17 19
40 39 39 39 39 38 38 38 38 37 37 37 37 37 37 39 37 33 25 25 36 36 26 19 21 23 25 26 27 27 29 30 28 26 25 25 28 24 20 19 17 19 19 20 17 18 18 18 17 18 16 17 20 22
39 38 39 38 38 38 38 38 38 37 37 36 36 36 38 36 31 21 12 27 37 36 27 20 19 21 24 27 27 26 27 26 26 24 23 22 22 24 21 15 14 15 18 19 21 22 20 21 19 19 20 20 23 24
39 39 39 38 38 37 38 38 38 37 37 37 36 37 37 38 37 32 33 36 36 29 29 19 18 18 24 25 23 28 25 25 25 24 23 21 22 24 19 17 17 18 18 19 20 22 21 22 23 23 23 22 21 21
39 39 39 39 38 37 38 37 37 37 37 38 38 36 33 32 29 28 35 36 36 28 21 22 18 11 25 27 28 28 27 23 25 23 23 22 21 18 18 19 19 20 20 22 28 28 25 20 20 20 21 22 22 21
39 39 39 39 38 37 38 37 37 37 38 36 32 26 22 28 34 35 34 29 30 29 27 21 22 18 23 25 24 23 25 23 20 22 25 22 18 20 21 22 31 31 31 31 27 26 28 22 21 21 22 22 22 22
39 39 38 38 38 38 38 37 37 36 35 31 27 26 29 35 33 30 24 23 23 21 25 23 22 18 24 20 18 23 21 23 18 19 21 21 19 22 29 31 31 27 27 29 29 30 26 23 21 22 24 27 30 31
38 39 38 38 38 38 37 37 37 33 31 30 30 34 34 31 27 22 20 21 21 17 22 21 23 24 24 27 23 23 20 21 15 26 21 17 22 30 30 29 29 28 26 28 30 31 31 31 31 30 28 30 32 32
39 39 38 38 37 37 37 37 37 35 35 33 28 27 26 26 19 18 15 18 19 22 23 24 24 25 25 26 25 23 20 18 27 21 17 19 27 30 28 26 24 25 25 27 28 30 31 31 32 31 31 31 29 30
38 38 38 38 38 37 37 37 37 36 33 27 23 18 21 18 20 19 20 20 23 24 25 26 26 24 26 23 23 20 20 24 19 17 17 22 26 28 26 25 24 24 24 25 27 29 29 29 30 31 31 31 30 29
36 36 36 36 36 37 38 38 38 36 31 26 27 19 20 22 22 24 26 27 29 31 30 28 27 26 24 23 24 22 19 17 19 16 21 26 28 27 26 25 23 25 25 26 28 28 27 28 29 29 29 29 28 26
35 35 35 36 36 36 37 36 38 33 30 28 27 24 24 25 23 25 27 27 32 31 31 30 26 23 22 23 21 18 17 14 16 22 26 27 26 25 26 24 24 26 27 27 27 27 26 26 26 27 28 28 28 27
36 35 37 39 39 40 40 38 32 30 28 27 26 28 24 24 24 24 27 29 33 30 26 28 23 20 22 22 20 22 19 20 23 27 28 25 25 26 24 23 25 26 26 25 24 25 26 27 27 26 24 23 25 24
34 37 37 38 37 38 37 34 30 29 25 27 25 25 27 28 27 28 30 31 30 29 28 27 28 22 21 19 20 22 23 25 26 26 26 25 25 25 23 23 24 25 24 23 22 24 24 25 25 23 21 21 21 20
37 37 37 39 38 35 30 31 32 26 26 26 26 27 28 28 29 30 29 31 31 32 29 27 25 24 23 23 23 24 24 24 24 25 24 23 24 24 24 24 23 23 22 23 23 22 22 22 22 21 21 22 20 19
40 39 39 40 39 32 29 30 34 30 26 26 28 27 27 27 28 28 29 30 29 29 26 24 24 24 25 24 24 24 25 26 24 22 22 23 25 24 23 23 23 23 23 23 23 22 22 21 21 22 22 21 20 19
32 33 35 37 36 34 31 28 29 30 28 28 28 29 27 28 27 27 27 30 27 26 26 27 26 25 26 25 25 26 26 25 24 24 23 24 25 25 25 25 25 24 23 23 22 22 22 21 21 21 21 20 20 19
30 35 34 35 31 31 30 29 28 30 28 28 28 28 26 24 24 26 28 26 26 25 26 25 25 26 25 25 25 25 25 25 25 25 25 25 25 26 25 25 25 24 24 24 23 22 22 22 22 21 20 19 19 18
34 34 33 32 28 27 24 30 27 28 24 24 26 24 22 24 25 28 24 25 25 24 24 25 25 26 25 25 27 26 26 26 25 24 25 26 27 27 27 27 27 26 25 25 25 24 22 22 21 20 20 19 18 17
33 31 27 27 27 23 25 24 27 27 27 24 23 21 22 23 26 24 21 21 22 24 24 25 25 25 25 25 24 25 26 27 26 25 26 27 26 25 26 26 26 27 27 26 25 25 24 23 22 21 20 19 18 17
26 25 25 22 23 23 21 20 21 22 21 22 21 21 21 24 21 20 19 19 20 22 24 25 26 26 24 24 24 24 26 26 26 25 26 27 25 24 23 24 24 25 26 25 25 25 25 25 25 25 24 23 21 21
20 20 20 20 20 20 20 18 19 20 20 20 20 19 21 21 19 17 18 17 17 20 20 19 20 23 24 25 23 23 25 26 27 25 24 26 26 25 24 23 23 22 24 25 26 25 24 25 24 23 24 24 23 23
16 17 21 24 22 22 20 18 19 20 18 18 19 20 20 17 15 16 17 17 17 17 18 20 20 21 23 25 24 25 25 26 26 25 25 25 25 26 25 23 22 23 24 25 24 24 24 24 23 22 21 21 22 22
18 20 15 15 15 17 18 17 15 14 17 19 19 17 18 17 16 17 15 16 17 16 18 20 21 21 22 23 24 23 23 24 24 23 23 23 23 24 25 25 25 24 24 24 24 24 23 22 22 21 21 21 21 19
16 14 14 15 14 14 16 16 15 15 16 17 15 16 17 18 16 14 13 13 12 14 15 16 18 19 20 20 20 20 22 23 21 20 19 19 20 21 21 22 23 24 24 23 23 23 23 23 22 21 20 21 19 19
-0 11 5 8 10 6 12 14 14 15 15 16 16 16 13 11 7 6 8 9 10 10 11 11 13 16 17 18 19 19 18 18 19 20 19 19 20 19 21 21 22 22 22 23 23 22 19 21 22 21 21 19 19 19
8 10 12 11 9 10 11 6 6 7 10 12 10 12 11 8 7 8 7 7 6 8 10 10 12 14 16 17 17 17 17 16 16 16 17 18 19 19 19 19 20 20 20 21 21 21 20 19 18 19 19 17 15 15
3 4 7 7 3 2 3 1 -2 1 5 9 9 7 9 8 6 6 8 7 6 7 7 8 10 12 15 17 16 15 14 14 13 13 14 15 15 15 15 15 14 16 16 17 17 16 17 16 14 13 11 9 8 8
3 1 1 1 -1 -5 -2 3 2 1 3 6 6 2 2 4 1 5 7 10 8 7 8 9 12 15 15 15 13 12 11 10 9 10 9 10 10 11 12 11 11 11 11 11 10 10 9 8 7 6 5 4 3 3

GFSWCAN_sfc_30mbdewp_186.txt.gz
Dewpoint
40 40 40 40 40 40 40 39 39 39 39 39 39 39 39 40 39 36 36 37 31 27 23 24 22 21 21 21 19 20 19 24 23 20 17 20 17 15 16 13 11 10 6 17 18 17 15 14 15 10 10 16 20 21
40 40 40 40 39 39 38 38 38 38 38 38 38 38 38 38 39 37 32 37 36 31 25 28 27 25 24 23 23 26 22 24 23 20 21 23 16 19 16 12 17 15 10 8 13 21 26 24 16 18 19 18 20 21
40 40 39 39 39 39 38 38 38 37 37 37 38 38 38 38 38 35 33 37 35 30 27 26 25 26 29 30 28 26 24 25 26 30 27 25 19 21 15 13 17 19 26 19 16 16 18 20 21 21 21 19 23 22
39 39 39 39 39 39 38 37 38 38 38 38 37 37 38 38 38 37 35 37 33 30 24 21 26 27 28 29 31 30 27 27 32 33 27 24 17 21 15 13 12 12 19 22 22 20 18 17 20 21 19 16 15 20
39 39 39 39 39 38 37 38 37 37 37 37 36 36 36 37 37 39 38 37 37 31 24 24 25 24 24 24 26 28 29 29 30 26 24 21 18 17 15 13 15 15 15 16 16 19 19 15 16 22 20 16 17 17
39 39 39 39 39 38 38 38 37 37 37 37 37 37 37 40 38 33 29 33 37 36 26 20 24 22 23 25 26 26 27 28 30 25 22 20 21 20 15 12 12 13 13 15 15 16 19 20 18 17 18 17 13 15
39 39 39 39 38 38 38 38 38 37 37 36 36 38 39 37 35 28 19 29 35 36 28 18 16 20 24 24 26 27 27 26 26 25 23 19 17 24 19 15 14 14 14 15 16 17 17 18 19 19 16 15 18 18
39 39 39 39 38 38 38 38 38 37 36 36 36 36 37 38 37 31 31 37 37 28 26 19 16 20 24 25 24 27 27 27 26 23 19 18 16 20 19 14 13 14 17 17 18 18 19 20 20 20 21 20 19 19
39 40 39 38 37 38 38 38 37 37 37 37 38 37 35 33 31 28 35 36 37 29 21 20 15 14 24 25 29 29 29 23 25 24 21 19 17 19 15 14 16 18 20 25 27 28 27 27 27 25 18 17 17 17
39 39 39 38 37 38 38 38 37 37 37 36 33 31 28 30 34 36 34 30 29 30 28 20 17 17 21 18 18 25 27 21 18 18 22 22 17 17 20 24 24 30 31 28 27 27 27 26 28 28 23 19 19 19
40 39 39 39 38 37 37 37 37 37 35 32 31 28 31 35 33 30 26 24 23 21 22 21 19 18 26 21 20 20 19 19 16 19 19 18 19 23 29 31 32 32 31 27 29 30 30 29 28 24 23 22 23 24
39 39 39 39 38 38 37 37 37 32 32 31 30 32 31 30 28 23 20 21 20 15 20 22 26 23 25 25 22 21 18 18 14 24 21 15 19 27 32 31 31 30 30 26 25 27 30 32 32 30 30 29 29 34
38 39 39 38 38 38 37 37 37 35 35 33 28 26 26 26 20 18 16 19 21 25 26 25 24 28 27 28 24 22 20 16 23 21 16 17 23 30 31 29 27 26 25 25 25 28 30 31 31 32 32 32 33 33
39 39 38 38 38 38 38 37 37 35 31 26 23 19 20 19 19 17 17 16 21 26 28 28 27 26 27 24 24 20 19 22 18 15 15 21 27 29 28 27 26 25 25 24 26 28 29 29 29 30 31 32 33 32
37 37 37 37 37 37 37 37 37 37 32 26 25 18 19 22 25 26 27 26 26 30 31 29 28 27 26 24 23 21 21 17 16 16 20 30 30 28 27 26 25 25 26 26 28 28 28 28 28 29 30 30 32 32
35 35 32 34 36 36 37 36 38 33 31 28 27 24 26 26 26 28 29 28 30 31 32 30 27 22 21 21 20 18 16 15 18 25 29 29 28 26 26 27 26 26 27 27 27 28 28 28 27 27 28 29 29 30
36 31 37 38 38 37 37 36 33 29 28 27 25 29 28 27 26 28 28 27 33 31 27 28 24 22 22 19 17 19 19 21 27 29 30 28 26 26 27 26 25 25 26 26 26 26 27 29 29 27 25 25 27 28
31 32 37 37 40 38 37 34 30 29 26 27 26 28 30 30 29 29 29 29 31 30 29 26 29 24 22 18 17 23 27 30 29 29 29 28 26 26 26 25 25 25 25 25 25 26 26 27 28 27 26 25 25 25
32 34 35 39 39 35 30 30 31 26 26 28 28 29 28 29 30 30 30 31 32 32 30 28 25 23 23 25 27 30 30 29 28 28 27 26 26 26 25 25 25 25 25 25 25 25 25 25 25 25 25 26 26 25
37 39 37 39 39 32 29 30 33 29 26 27 29 28 28 28 30 30 30 30 30 28 26 24 22 26 29 29 30 30 29 28 27 25 25 26 27 26 26 25 25 25 24 25 25 24 24 24 24 24 25 26 25 24
34 34 36 38 36 34 31 29 28 30 28 28 29 29 28 30 28 28 27 29 27 26 24 27 30 32 30 29 29 29 28 27 26 25 24 24 26 27 26 26 26 25 24 25 24 24 24 24 24 25 25 25 25 25
34 37 35 36 32 31 29 30 28 30 29 27 28 28 25 25 25 26 29 27 26 28 28 26 27 27 27 27 28 29 29 27 26 25 25 26 25 26 26 26 26 25 25 25 24 24 24 24 25 24 24 23 23 22
35 36 32 31 28 28 25 32 27 28 25 26 26 24 24 24 26 28 25 26 26 26 27 26 27 27 26 27 28 28 28 27 25 25 26 27 28 28 28 28 28 27 25 25 25 24 24 24 24 24 24 24 23 22
34 31 28 27 27 25 27 25 27 27 27 25 24 22 23 25 27 25 22 24 24 23 23 24 26 25 26 26 26 26 27 27 27 27 28 27 27 27 28 28 28 28 27 27 26 25 25 25 24 24 23 23 22 21
27 26 26 24 26 24 22 23 23 24 23 24 23 23 24 26 22 21 20 20 21 23 23 23 22 23 24 24 25 26 28 27 27 27 28 29 28 27 26 26 26 27 28 28 27 27 26 26 26 25 25 24 23 23
20 21 21 22 22 21 21 19 20 21 21 21 23 23 24 23 21 18 19 19 21 21 22 21 21 21 22 24 25 25 27 28 28 27 27 29 29 28 27 25 25 24 26 28 28 27 26 26 25 24 25 25 24 23
18 18 21 23 21 23 22 21 20 21 19 19 21 22 22 17 16 19 21 20 19 21 20 20 22 21 22 23 24 27 27 28 28 27 27 27 27 28 28 27 25 25 25 26 26 27 26 25 24 24 24 25 25 25
19 18 15 18 17 18 19 18 18 16 18 19 20 18 18 17 18 21 19 18 18 16 17 19 21 22 22 22 24 25 26 26 26 26 26 25 25 26 26 26 26 25 25 26 26 26 25 25 25 24 23 22 23 24
15 12 10 14 15 16 17 17 16 16 16 16 15 15 17 18 14 12 12 13 15 16 16 15 16 18 20 23 24 24 25 25 24 22 21 22 22 23 25 26 26 26 26 25 23 24 24 24 24 23 23 23 23 23
6 11 9 8 8 9 15 15 13 13 11 9 8 8 12 13 10 11 11 11 10 11 13 14 16 17 17 18 19 21 23 22 22 21 20 21 24 25 24 24 25 25 25 25 24 23 23 23 22 22 22 21 21 21
9 10 12 12 11 13 13 10 11 10 11 13 14 13 10 11 10 10 9 10 10 12 11 11 12 15 15 16 18 18 18 20 19 18 18 20 22 23 24 23 23 23 23 23 24 24 23 21 20 20 19 19 18 19
8 6 4 3 0 9 8 7 7 6 8 10 10 11 11 10 6 7 9 9 7 7 9 10 10 11 15 17 17 17 15 16 15 15 15 18 18 18 19 19 19 20 20 21 20 20 21 21 20 18 16 14 13 12
6 6 6 5 3 1 6 5 -0 5 7 8 7 6 6 5 2 6 9 10 9 8 9 10 11 13 16 15 14 14 14 12 10 10 10 11 11 14 15 15 16 15 15 14 14 14 13 13 11 10 9 8 8 7

GFSWCAN_sfc_30mbdewp_189.txt.gz
Dewpoint
41 41 41 41 41 41 41 41 41 41 40 40 40 40 41 41 38 37 35 34 30 27 22 22 21 19 18 19 18 21 20 19 20 19 14 11 10 11 16 8 10 11 9 12 18 16 13 19 10 7 17 18 18 16
41 40 40 41 41 41 41 41 40 40 40 39 39 39 40 41 39 37 32 35 34 32 26 26 25 23 21 20 21 28 23 24 24 22 21 22 20 20 13 10 11 12 18 20 20 17 27 25 23 25 30 23 21 25
40 40 40 40 40 40 39 39 39 38 38 38 38 38 38 40 39 37 31 33 32 30 27 23 22 24 27 27 26 25 23 24 24 26 25 20 17 15 12 12 10 9 11 11 14 15 18 28 27 23 24 27 20 20
40 40 40 40 40 39 38 37 37 38 38 38 37 38 38 38 38 37 33 34 31 29 24 20 23 24 25 26 27 28 25 25 29 32 28 24 19 18 16 16 12 10 11 12 11 12 16 19 23 20 19 21 18 20
40 40 40 40 39 37 37 38 38 38 37 37 37 36 37 38 38 37 38 36 35 30 26 23 23 22 22 24 24 26 25 25 27 28 27 21 18 18 17 14 12 11 10 12 15 13 13 15 19 23 21 20 18 17
40 39 39 39 38 38 38 38 37 37 37 37 36 37 38 38 38 34 31 33 36 36 26 19 20 21 21 22 22 21 22 23 27 25 22 18 17 18 17 12 10 9 10 12 13 14 15 16 17 19 17 16 18 18
39 40 39 39 38 38 38 38 38 38 37 37 38 39 39 38 36 29 25 29 34 33 27 18 15 18 21 22 23 24 24 23 25 26 22 16 14 15 18 14 13 12 11 11 13 15 16 17 19 20 21 19 14 14
40 39 39 39 37 38 38 38 37 36 36 36 36 37 37 36 33 26 30 34 32 27 23 18 15 18 22 20 20 22 22 25 29 22 18 15 16 18 21 17 14 12 13 14 15 17 19 20 19 19 19 19 17 16
40 39 39 38 38 38 38 38 37 36 36 37 37 37 33 32 31 31 35 35 36 30 25 20 15 18 23 20 25 26 26 24 24 25 23 23 20 20 14 14 16 18 21 21 24 27 28 27 27 27 27 26 24 16
40 39 39 38 38 38 38 38 37 37 38 37 33 31 29 31 33 35 33 31 30 29 28 20 19 20 22 22 21 20 26 20 19 19 21 25 21 24 25 29 30 31 31 33 30 28 29 28 28 28 27 26 25 20
39 39 39 38 37 38 38 38 37 37 36 29 31 28 30 34 31 30 27 25 25 23 22 21 21 20 25 22 21 22 20 20 17 20 21 20 19 23 25 29 33 34 33 32 32 29 26 27 30 30 29 25 22 21
39 39 39 39 38 37 37 37 38 33 30 31 31 30 30 28 27 24 22 21 20 21 28 26 27 28 29 30 26 23 18 18 13 24 21 15 19 22 30 33 32 33 30 26 24 24 25 26 29 31 32 31 31 34
38 39 39 39 38 38 37 38 37 34 32 30 28 27 25 25 21 18 17 17 20 25 26 27 26 29 30 29 27 24 20 16 19 21 17 15 22 31 31 29 29 28 26 25 25 25 26 29 30 31 31 32 34 33
38 39 39 39 38 38 38 37 37 34 31 26 24 19 21 21 19 16 16 15 21 26 26 31 28 28 29 25 23 21 18 19 17 15 12 22 27 29 29 30 29 26 26 26 26 27 28 30 30 30 31 31 31 32
37 38 38 38 38 38 37 37 37 33 30 26 24 19 18 21 23 26 28 26 25 27 28 30 30 28 27 24 21 19 19 16 14 14 22 30 31 30 28 27 27 27 27 28 28 29 29 29 29 29 30 30 31 32
35 34 30 34 37 37 37 37 37 34 32 27 25 24 25 25 27 30 29 28 28 29 31 31 28 25 22 19 18 16 13 12 15 23 28 28 29 28 28 28 28 27 27 28 27 28 28 29 29 28 29 29 30 32
34 27 35 36 36 37 37 36 33 29 29 26 24 27 28 27 28 30 29 27 32 29 25 27 25 24 24 19 15 16 16 19 28 29 30 30 29 28 28 27 27 26 26 26 26 26 27 29 30 30 26 27 28 29
30 29 33 34 38 38 36 34 30 29 26 26 23 27 30 30 31 31 30 30 30 29 29 27 29 22 22 20 15 21 29 31 30 31 30 31 29 28 27 26 27 25 26 25 26 26 27 27 28 28 29 28 27 27
29 30 36 37 39 35 31 30 31 26 26 27 29 30 29 31 33 32 31 32 32 33 30 29 25 21 22 29 30 31 31 30 30 30 30 30 28 27 26 26 26 26 25 25 26 25 26 27 26 27 27 29 29 29
37 38 38 38 38 32 29 30 34 29 24 27 28 28 28 29 30 32 31 30 30 29 26 25 22 25 30 32 32 31 32 32 29 28 29 30 29 28 28 27 25 26 25 25 27 26 27 28 27 26 27 29 28 28
35 34 36 38 36 33 31 31 29 30 30 28 26 27 27 28 28 28 28 30 28 26 24 28 30 30 30 30 30 29 30 29 28 28 27 26 28 26 26 26 27 25 25 25 25 26 27 26 26 27 28 28 28 28
35 37 34 36 31 31 30 31 26 30 29 26 26 25 24 26 27 28 29 27 26 29 28 27 26 26 26 26 28 28 29 27 26 26 26 26 26 29 30 28 27 26 26 26 24 25 25 26 27 28 27 27 27 26
36 36 33 31 28 28 28 29 26 25 23 25 26 23 23 25 26 27 25 26 27 27 26 25 26 28 27 27 27 27 29 27 26 26 27 27 29 29 29 28 28 29 27 25 25 25 25 26 26 27 27 27 26 25
33 31 27 26 27 25 27 26 26 23 25 24 24 21 20 24 27 25 22 26 25 23 23 24 24 24 25 28 27 26 27 27 26 28 30 28 28 29 28 29 30 29 27 26 26 26 26 26 27 27 27 26 26 25
25 25 26 23 29 26 23 23 23 21 22 24 24 23 26 25 21 19 19 23 22 23 23 23 22 22 22 23 25 26 30 27 27 26 31 29 30 28 28 29 29 28 28 28 28 28 27 28 28 27 24 25 23 23
19 22 22 22 24 23 22 20 20 19 20 22 22 25 25 22 18 17 21 24 23 22 22 21 21 20 20 21 22 23 27 28 27 26 30 29 30 29 29 28 27 27 27 28 28 28 27 27 26 26 27 25 24 25
18 19 22 22 20 21 22 24 24 22 19 19 20 20 20 13 11 21 22 21 21 21 20 20 20 19 20 21 22 23 25 27 29 28 28 28 29 29 28 27 27 28 26 26 27 27 28 27 26 25 25 26 27 27
18 15 10 11 18 20 18 18 17 17 18 18 19 16 15 17 17 19 17 17 17 17 17 17 18 18 19 19 21 23 24 27 27 28 27 27 26 27 27 28 28 26 27 27 27 27 27 27 27 26 25 25 24 24
9 11 8 5 11 13 16 17 18 17 13 12 13 15 18 17 14 13 13 14 15 15 15 15 16 17 18 19 21 26 25 25 24 23 23 22 26 27 26 26 27 27 26 25 23 25 26 26 25 25 26 25 25 23
6 9 8 6 8 6 15 14 11 12 9 6 8 5 6 13 13 13 12 13 12 13 14 15 16 16 15 15 16 19 24 25 23 21 19 19 22 24 27 27 26 26 26 26 26 24 23 24 23 23 23 23 24 23
8 8 8 11 9 13 14 14 14 10 13 12 13 11 9 12 12 12 10 11 12 13 12 11 12 14 14 14 15 15 18 21 19 19 19 19 21 23 25 26 25 26 25 24 24 25 25 23 24 23 22 21 21 22
8 8 6 2 2 6 9 8 5 7 7 8 10 11 14 13 8 9 10 10 8 7 9 10 10 10 13 17 17 18 17 16 15 15 15 16 19 20 21 22 23 23 22 22 22 22 23 24 23 21 19 17 17 15
4 6 6 6 3 2 3 5 -1 2 4 7 9 8 7 7 4 7 6 10 9 9 8 9 11 11 13 18 16 16 17 17 14 12 11 11 11 13 17 18 18 18 19 18 18 18 17 17 15 14 13 12 11 11

GFSWCAN_sfc_30mbdewp_192.txt.gz
Dewpoint
41 41 42 42 41 41 42 43 43 43 43 43 42 41 40 38 37 36 32 34 34 29 25 20 20 18 17 19 20 23 21 19 20 18 15 12 10 9 9 9 12 12 14 14 15 15 13 28 27 17 21 26 29 31
42 42 42 42 42 42 41 41 41 41 41 41 41 41 41 39 38 38 33 35 33 33 29 27 25 24 20 20 21 26 24 25 26 23 21 24 21 23 17 17 15 16 17 17 15 13 15 25 28 28 28 27 28 29
40 41 41 41 41 41 41 40 40 40 40 39 39 40 41 40 38 38 34 32 30 31 28 23 22 24 26 25 23 22 21 23 23 25 26 20 16 12 10 10 12 13 16 19 9 9 9 12 29 30 28 29 25 27
40 40 40 40 40 39 38 38 38 38 38 38 38 38 39 39 39 37 33 32 31 29 24 21 22 22 23 24 25 25 24 24 30 30 28 26 19 17 16 15 15 18 14 13 12 12 11 14 25 29 31 27 25 28
40 40 40 39 38 37 38 38 38 38 37 37 37 37 37 38 38 35 36 34 36 32 25 24 24 22 21 22 22 22 25 25 24 24 25 22 21 21 22 20 19 18 15 14 15 17 14 12 15 16 17 22 20 18
40 40 39 38 38 38 38 38 38 37 37 36 36 36 37 38 38 33 30 32 32 33 27 20 21 19 19 21 20 20 21 26 25 20 21 20 21 21 20 15 14 11 12 14 14 15 15 16 17 16 16 15 18 19
40 39 38 38 38 38 38 38 38 38 38 38 38 38 38 39 38 32 29 33 33 32 26 18 15 16 19 18 19 20 20 18 19 21 22 21 18 18 17 15 14 12 11 12 16 20 20 20 21 21 20 19 20 20
40 38 38 38 38 38 38 38 37 36 36 37 38 37 37 34 31 26 30 32 32 25 26 19 16 17 20 19 18 18 21 25 28 22 20 17 18 18 17 16 16 16 16 20 22 26 26 26 25 24 25 26 26 25
39 39 39 38 38 38 38 37 36 35 36 36 36 36 34 32 32 32 35 34 31 31 26 22 15 18 29 21 23 27 28 23 24 23 23 23 23 21 18 17 23 26 26 27 27 31 30 30 30 28 27 27 25 25
39 39 38 38 38 38 38 37 37 37 38 37 33 32 27 31 35 35 32 31 31 29 28 21 19 22 23 23 24 23 27 23 20 21 22 27 22 24 24 26 29 30 32 31 31 29 30 31 31 28 28 27 29 31
39 39 38 37 38 38 38 38 37 38 36 31 32 30 31 32 28 29 27 24 25 23 25 25 24 21 26 22 22 24 22 21 17 18 23 21 19 21 24 27 29 32 32 32 31 31 27 25 25 26 26 28 29 30
38 38 38 38 37 37 38 38 38 35 36 30 29 29 29 28 28 24 21 20 21 18 26 27 27 28 31 31 26 23 21 18 12 25 23 16 22 28 30 33 32 31 32 33 30 26 25 24 25 28 31 31 31 32
39 39 39 38 38 37 37 38 38 35 33 32 30 28 26 25 21 18 17 17 23 25 25 26 28 27 31 29 26 24 20 16 18 20 15 16 26 31 32 28 29 28 28 27 26 25 25 27 30 30 31 31 31 32
37 39 39 39 39 38 37 37 38 34 30 29 25 20 20 21 18 16 18 19 21 26 26 30 31 28 29 27 23 21 19 19 17 14 13 27 29 29 29 30 28 27 28 27 27 28 28 29 30 30 31 31 30 30
39 38 38 39 39 38 38 38 38 32 31 26 25 18 18 19 23 25 28 27 26 28 30 32 29 28 28 25 22 18 18 16 14 13 23 30 31 29 29 29 28 28 28 27 28 28 28 29 29 30 31 29 30 30
35 33 31 36 38 38 38 37 35 36 32 27 25 23 25 25 28 30 30 30 28 32 31 30 26 26 23 22 19 17 13 11 14 24 30 29 30 30 29 28 28 27 28 27 27 27 26 27 28 29 30 29 29 31
34 26 30 35 37 38 38 36 34 29 28 25 23 27 28 27 28 30 30 29 31 28 24 25 23 24 27 23 19 16 16 26 31 31 31 31 29 28 27 27 27 27 26 26 26 26 26 28 29 30 28 28 29 29
30 30 35 37 37 36 33 34 31 29 25 25 23 26 30 30 30 31 31 32 32 29 27 27 29 25 21 18 18 29 30 32 32 33 31 31 30 28 27 26 27 27 27 27 26 26 28 28 27 28 30 30 29 28
31 32 36 36 36 33 30 30 31 26 26 26 28 29 29 30 32 33 32 33 33 35 31 27 25 22 21 30 28 28 28 30 30 30 30 32 30 29 27 29 28 29 27 28 28 27 27 29 28 28 29 31 30 29
36 37 36 37 38 32 29 30 33 28 23 25 28 29 29 29 30 32 30 30 31 29 26 24 22 27 27 29 30 28 29 31 29 28 28 30 32 30 28 28 26 28 28 28 29 28 27 29 28 28 28 30 30 29
35 36 36 37 34 33 31 31 29 28 27 26 27 27 26 28 28 29 29 31 29 26 23 27 29 30 29 28 30 29 29 29 27 27 26 26 28 27 28 29 29 30 28 27 27 27 27 27 28 29 29 28 28 28
33 36 34 35 31 30 29 32 29 29 27 25 25 25 24 26 27 28 31 29 27 27 28 27 26 25 25 26 27 28 29 28 27 28 28 28 27 28 30 30 28 29 28 27 27 27 27 27 28 29 29 28 29 28
34 36 32 31 27 28 28 30 27 29 23 24 24 22 24 24 25 29 25 26 28 28 26 25 25 28 28 29 29 31 30 29 27 27 29 29 29 31 30 31 29 29 29 28 27 27 27 28 28 28 28 28 27 26
33 31 27 26 26 24 29 28 28 22 24 21 21 20 20 24 27 25 20 27 27 25 23 23 23 22 24 24 25 27 29 28 26 27 30 31 28 31 30 29 30 30 30 30 28 27 27 27 28 28 28 27 28 27
26 24 26 20 25 25 24 24 21 20 20 20 21 23 25 29 24 20 21 25 25 23 22 22 21 21 20 20 21 23 25 27 26 26 28 31 29 30 31 30 29 30 30 29 29 29 28 28 28 28 27 26 25 25
19 21 22 22 23 22 22 22 22 19 19 21 24 26 28 25 22 21 22 24 23 22 23 22 20 19 18 19 19 20 22 25 26 26 29 28 28 28 27 27 28 29 30 29 28 27 28 28 27 25 27 25 25 26
15 14 21 20 17 18 20 23 24 22 20 21 22 22 23 18 18 19 20 19 19 20 20 19 20 18 17 17 17 19 21 24 27 26 27 28 28 28 27 26 25 27 29 28 28 27 26 28 27 26 26 27 27 28
17 13 11 14 12 16 18 16 16 18 19 17 18 16 16 17 13 17 17 17 16 16 16 16 16 17 17 18 21 22 23 25 25 27 29 28 28 28 28 28 28 26 27 26 26 28 27 27 27 27 25 26 26 25
11 13 10 8 7 8 18 17 17 15 11 8 11 16 17 15 16 14 14 16 16 15 14 14 15 18 18 17 19 21 23 25 21 20 19 21 24 25 28 28 27 27 28 28 24 24 25 25 26 26 26 27 26 25
6 8 9 9 6 7 17 15 13 13 13 10 10 7 11 14 15 15 14 13 13 14 14 15 15 15 15 15 15 16 22 21 20 19 17 17 18 22 24 25 27 28 27 26 27 26 23 24 23 24 23 23 24 24
8 12 9 12 13 15 16 14 12 11 11 12 14 11 11 13 14 12 11 11 11 12 10 10 11 13 12 13 14 14 14 17 17 16 16 17 19 22 22 22 24 25 26 25 25 25 26 25 24 25 23 22 23 22
7 10 8 4 4 6 10 14 8 7 9 8 14 13 15 13 11 11 13 11 9 8 9 9 9 10 12 14 14 19 18 18 16 14 13 13 14 15 17 21 22 22 23 23 24 24 24 23 25 21 18 16 15 14
4 5 8 10 0 4 5 3 2 1 4 11 11 9 8 7 5 9 7 10 11 9 9 9 12 11 11 13 16 17 16 18 18 15 12 11 10 10 14 17 19 19 19 19 19 20 19 18 16 15 14 12 12 11

GFSWCAN_sfc_30mbdewp_195.txt.gz
Dewpoint
42 41 41 42 43 43 43 43 43 43 42 41 41 40 38 39 39 37 37 37 35 29 27 24 22 21 21 22 19 24 20 21 20 18 18 16 14 14 14 13 14 16 15 14 15 13 10 21 23 18 21 27 28 30
41 41 41 41 41 42 42 42 42 42 43 42 42 40 39 39 39 38 34 35 37 33 31 30 28 27 26 22 22 25 24 25 24 20 19 22 17 20 17 13 16 15 24 22 23 19 22 22 22 26 30 31 30 31
41 41 41 41 41 41 41 41 41 41 41 41 41 40 39 38 37 38 35 33 34 31 28 26 22 26 27 26 27 22 26 26 25 26 24 22 17 16 12 15 14 15 17 18 23 20 17 16 28 30 30 30 30 27
40 39 39 39 39 39 39 39 39 39 39 40 40 40 39 38 36 38 34 34 32 29 24 23 25 24 26 27 25 27 25 26 28 29 26 25 21 22 17 18 18 18 18 17 17 16 18 17 19 25 28 28 28 26
39 39 39 39 39 39 39 39 38 38 37 37 37 37 38 37 36 37 35 35 36 31 24 24 26 23 23 27 25 25 26 26 26 25 26 23 23 21 21 21 20 21 18 17 15 17 19 19 18 19 20 17 19 20
39 39 39 39 39 39 39 39 38 38 37 37 36 37 38 37 37 33 27 33 33 32 27 21 25 20 21 21 24 23 23 26 26 25 24 24 23 20 20 19 17 17 19 18 16 15 18 27 28 27 26 24 22 22
38 39 39 38 39 39 39 39 39 39 39 39 39 38 39 38 37 29 30 33 33 34 26 21 19 22 21 21 23 22 22 21 24 24 22 20 20 22 20 17 16 16 16 16 17 22 26 30 29 30 29 27 28 27
38 38 38 38 38 39 38 37 36 36 37 36 36 35 33 30 31 31 33 34 31 29 27 22 17 18 29 19 18 23 22 23 24 22 22 20 21 21 19 19 18 18 25 27 28 29 30 30 30 30 30 28 27 27
39 39 39 38 38 37 37 36 35 36 36 36 35 34 36 34 31 32 33 32 33 30 24 23 17 16 28 24 24 25 26 22 27 26 24 22 23 21 22 22 26 27 28 30 31 31 31 30 31 31 30 28 28 28
38 38 38 38 38 38 38 37 37 37 37 36 33 31 23 32 35 34 32 28 29 29 28 23 21 18 23 25 24 24 26 23 20 23 25 25 22 23 25 25 26 27 29 30 30 28 28 29 28 26 27 27 27 29
38 38 37 37 38 38 38 38 37 37 35 32 32 32 32 33 30 27 25 22 25 23 25 24 23 22 28 22 23 25 22 22 19 19 21 22 21 22 26 25 27 30 31 32 32 32 32 32 26 25 26 28 29 30
38 38 38 37 37 37 38 38 38 35 36 32 30 31 32 30 27 23 22 22 24 19 25 25 25 26 29 31 26 24 22 20 16 23 22 19 26 32 31 30 30 31 31 31 30 27 25 25 27 29 30 30 30 31
39 39 38 38 38 37 37 38 38 37 34 34 31 27 25 24 20 20 18 18 22 23 25 28 28 30 30 29 24 24 21 18 20 18 18 23 30 31 33 32 30 28 29 27 26 27 28 28 29 30 29 29 30 30
36 39 39 39 39 38 37 37 38 36 31 30 26 19 19 21 21 19 23 22 24 27 27 29 29 28 29 26 23 21 21 20 17 15 16 28 29 31 30 29 28 28 28 26 26 27 28 28 28 27 29 31 30 28
38 38 38 38 38 38 38 38 38 35 31 27 25 18 19 21 23 24 26 26 28 28 28 29 29 29 28 25 24 21 18 17 16 14 22 31 32 30 29 28 27 26 26 26 26 27 27 27 27 28 29 30 29 28
34 33 33 36 38 38 37 37 36 33 31 27 26 23 24 24 24 26 28 27 30 32 30 30 25 24 24 25 21 19 15 13 23 29 32 31 29 28 27 26 26 26 26 26 26 27 27 26 27 28 29 30 28 29
35 29 30 34 37 37 36 35 32 29 26 25 23 26 26 26 26 27 28 28 32 31 23 25 23 20 28 24 22 26 23 26 28 31 32 30 29 28 26 26 26 26 27 27 26 26 26 28 28 29 28 27 28 28
33 31 32 34 37 36 34 34 30 28 24 26 24 25 29 29 27 28 30 30 31 31 28 25 28 24 21 20 20 27 29 29 31 30 27 31 30 28 27 26 27 28 29 28 28 28 27 28 26 27 28 30 28 27
35 35 37 37 37 34 30 31 31 25 25 26 27 27 28 29 31 31 31 32 33 34 31 28 24 22 22 27 26 27 27 28 28 27 30 31 30 29 29 29 27 27 28 28 28 28 28 29 29 28 28 29 29 28
35 35 36 37 38 31 28 29 31 27 25 27 27 26 29 29 30 31 31 31 30 30 26 25 23 26 26 28 28 28 27 29 28 26 25 27 28 27 27 28 28 30 29 28 28 28 28 27 27 28 29 28 29 28
35 34 37 37 34 32 30 30 28 29 26 25 27 28 26 29 29 30 29 31 28 26 24 26 28 28 29 30 29 27 28 26 25 26 26 26 27 27 28 30 31 31 28 27 26 26 27 26 27 28 27 27 27 27
31 36 33 33 30 30 28 32 29 30 27 27 26 27 25 26 27 27 30 28 27 27 29 28 27 26 24 26 25 27 29 29 28 28 28 29 28 27 28 30 30 28 29 26 27 27 27 27 27 27 27 27 28 28
30 33 32 30 26 27 26 31 28 26 22 25 25 22 23 24 26 31 25 26 28 29 26 25 25 26 27 29 31 30 29 28 26 26 27 29 30 30 31 31 30 28 28 28 28 27 27 27 27 28 28 27 26 26
30 28 27 25 25 22 28 27 30 26 26 23 20 20 21 23 29 26 23 26 27 26 24 23 22 21 22 24 23 25 26 25 25 24 25 27 29 28 30 30 31 30 30 30 30 28 27 27 28 27 27 27 27 26
25 24 24 20 24 23 20 19 22 22 20 23 20 19 21 27 24 24 23 23 23 23 23 23 21 22 21 21 21 21 23 23 23 23 25 28 27 26 26 28 31 31 31 29 27 28 29 28 27 27 27 26 25 25
18 23 20 19 20 21 20 18 19 19 21 22 21 23 27 24 21 18 18 19 20 21 22 22 21 20 19 19 19 19 20 20 22 23 24 26 25 26 25 25 25 26 29 29 27 26 26 27 27 24 27 25 26 25
14 13 17 18 18 19 19 20 22 20 18 18 19 19 21 19 15 15 17 18 18 20 22 21 19 19 18 18 19 20 21 22 22 24 25 26 27 28 27 25 23 25 27 27 26 26 25 26 27 26 25 27 27 27
14 14 9 11 12 13 15 18 18 14 14 14 16 17 13 11 10 15 16 19 20 20 17 17 18 17 19 19 18 20 22 23 25 25 21 24 29 26 26 27 28 25 25 26 24 25 26 26 25 27 25 26 25 23
7 13 9 8 9 8 16 15 15 14 14 10 10 13 14 14 16 16 17 16 17 16 15 15 16 18 16 15 16 17 20 17 15 14 14 15 15 17 20 24 24 26 27 27 26 24 24 23 24 26 26 26 24 23
6 9 9 8 8 9 15 17 15 15 15 13 14 12 14 14 15 15 14 14 14 13 13 12 13 14 12 11 12 11 17 17 15 13 12 11 13 17 19 19 20 22 24 26 26 26 25 23 23 23 23 23 24 24
9 8 9 11 8 9 12 14 14 12 11 12 14 12 13 12 13 13 13 12 11 11 9 9 10 11 9 9 10 10 10 16 15 13 12 12 13 13 13 14 17 21 21 22 23 24 24 24 24 24 22 20 20 18
7 9 8 7 7 9 13 6 7 6 6 8 12 18 14 13 8 11 12 11 9 8 9 8 9 10 9 10 12 13 15 17 17 13 11 10 9 9 9 12 16 19 19 19 21 21 21 22 23 17 15 13 13 12
5 6 10 10 3 2 3 4 2 1 4 11 10 10 9 8 5 8 11 12 9 9 9 9 12 8 10 11 10 10 13 17 17 14 12 10 8 8 8 9 11 15 17 16 16 16 15 14 13 12 11 10 8 7